Location: Newark
(41.4948°N, 13.7689°E)
Time: 05:21:25
(UTC+00:00)

Starlink Launch 2 trailer - Visible Passes

Search period start: 15 December 2019 00:00
Search period end: 25 December 2019 00:00
Orbit: 279 x 281 km, 53.0° (Epoch: 13 November)

Date Brightness Start Highest point End Pass type
(mag) Time Alt. Az. Time Alt. Az. Time Alt. Az.
20 Dec 4.3 17:14:48 10° SSW 17:16:03 21° S 17:16:03 21° S visible
21 Dec 3.1 17:16:24 10° SW 17:18:17 45° SSW 17:18:17 45° SSW visible
22 Dec 3.1 17:18:20 10° WSW 17:20:27 48° WNW 17:20:27 48° WNW visible
23 Dec 4.0 17:20:33 10° W 17:22:32 27° NW 17:22:32 27° NW visible
24 Dec 4.7 17:23:02 10° WNW 17:24:33 17° NW 17:24:33 17° NW visible
